Livingston, MT

4:27 PM MST on February 24, 2017 (GMT -0700)
Mission

Weather History for KLVM - October, 2012

Change the Weather History Date:

Monday, October 29, 2012

  Actual Average Record
Temperature  
Mean Temperature 57 °F 41 °F  
Max Temperature 64 °F 53 °F 74 °F (1968)
Min Temperature 51 °F 29 °F -2 °F (1971)
Degree Days  
Heating Degree Days 8 24  
Month to date heating degree days 568  
Since 1 July heating degree days 977  
Cooling Degree Days 0 0  
Month to date cooling degree days 0  
Year to date cooling degree days 229  
Growing Degree Days 7 (Base 50)    
Moisture  
Dew Point 38 °F    
Average Humidity 53    
Maximum Humidity 74    
Minimum Humidity 37    
Precipitation  
Precipitation 0.11 in 0.03 in 0.42 in (1978)
Month to date precipitation 1.20  
Year to date precipitation 13.64  
Sea Level Pressure  
Sea Level Pressure 29.90 in    
Wind  
Wind Speed 17 mph (WSW)    
Max Wind Speed 32 mph    
Max Gust Speed 43 mph    
Visibility 10 miles    
Events Rain    
T = Trace of Precipitation, MM = Missing Value Source: NWS Daily Summary

Daily Weather History Graph

Daily Weather History Graph

Search for Another Location

Airport or City:

Trip Planner

Search our weather history database for the weather conditions in past years. The results will help you decide how hot, cold, wet, or windy it might be!

Date:

Astronomy

Oct. 29, 2012 Rise Set
Actual Time 7:58 AM MDT 6:11 PM MDT
Civil Twilight 7:27 AM MDT 6:42 PM MDT
Nautical Twilight 6:52 AM MDT 7:17 PM MDT
Astronomical Twilight 6:17 AM MDT 7:52 PM MDT
Moon 6:03 PM MDT (10/29) 7:53 AM MDT (10/29)
Length of Visible Light 11h 15m
Length of Day
10h 13m
Full, 100% of the Moon is Illuminated
Oct 29
Full
Oct 29
Full
Nov 6
Last Quarter
Nov 13
New
Nov 20
First Quarter

Hourly Weather History & Observations

Time (MDT) Temp. Dew Point Humidity Pressure Visibility Wind Dir Wind Speed Gust Speed Precip Events Conditions
12:53 AM 53.1 °F 35.1 °F 50% 29.89 in 10.0 mi WSW 13.8 mph - N/A   Overcast
1:53 AM 53.1 °F 36.0 °F 52% 29.89 in 10.0 mi WSW 8.1 mph - N/A   Overcast
2:53 AM 52.0 °F 35.1 °F 53% 29.89 in 10.0 mi WSW 8.1 mph - N/A   Overcast
3:53 AM 52.0 °F 36.0 °F 54% 29.86 in 10.0 mi West 17.3 mph 27.6 mph N/A   Mostly Cloudy
4:53 AM 53.1 °F 37.9 °F 57% 29.86 in 10.0 mi WSW 13.8 mph 21.9 mph N/A   Partly Cloudy
5:53 AM 54.0 °F 37.9 °F 55% 29.86 in 10.0 mi West 17.3 mph 27.6 mph N/A   Mostly Cloudy
6:53 AM 52.0 °F 39.9 °F 63% 29.87 in 10.0 mi SW 18.4 mph - 0.00 in Rain Light Rain
7:53 AM 53.1 °F 39.9 °F 61% 29.86 in 10.0 mi SW 29.9 mph 36.8 mph 0.00 in Rain Light Rain
8:53 AM 53.1 °F 41.0 °F 64% 29.86 in 10.0 mi SW 20.7 mph 31.1 mph 0.00 in   Mostly Cloudy
9:53 AM 51.1 °F 43.0 °F 74% 29.90 in 10.0 mi WSW 19.6 mph 31.1 mph 0.03 in Rain Light Rain
10:53 AM 51.1 °F 43.0 °F 74% 29.92 in 10.0 mi SW 15.0 mph - 0.05 in Rain Light Rain
11:53 AM 51.1 °F 43.0 °F 74% 29.92 in 10.0 mi SW 27.6 mph 42.6 mph 0.02 in Rain Light Rain
12:53 PM 57.9 °F 44.1 °F 60% 29.88 in 10.0 mi SW 27.6 mph 35.7 mph 0.01 in   Partly Cloudy
2:53 PM 61.0 °F 36.0 °F 39% 29.86 in 10.0 mi WSW 26.5 mph 36.8 mph N/A   Overcast
3:53 PM 61.0 °F 36.0 °F 39% 29.87 in 10.0 mi SW 24.2 mph 29.9 mph 0.00 in   Mostly Cloudy
4:53 PM 63.0 °F 36.0 °F 37% 29.86 in 10.0 mi SW 29.9 mph 41.4 mph N/A   Mostly Cloudy
5:53 PM 59.0 °F 36.0 °F 42% 29.87 in 10.0 mi SSW 27.6 mph 38.0 mph N/A   Mostly Cloudy
6:53 PM 59.0 °F 36.0 °F 42% 29.90 in 10.0 mi SW 32.2 mph 41.4 mph N/A   Clear
7:53 PM 57.9 °F 36.0 °F 44% 29.92 in 10.0 mi WSW 23.0 mph 32.2 mph N/A   Scattered Clouds
8:53 PM 55.9 °F 36.0 °F 47% 29.94 in 10.0 mi SW 12.7 mph - N/A   Mostly Cloudy
9:53 PM 54.0 °F 35.1 °F 49% 29.98 in 10.0 mi WSW 12.7 mph - N/A   Mostly Cloudy
10:53 PM 55.9 °F 34.0 °F 44% 29.98 in 10.0 mi WSW 12.7 mph - N/A   Scattered Clouds
11:53 PM 54.0 °F 35.1 °F 49% 30.00 in 10.0 mi NW 4.6 mph - N/A   Overcast